Location: Unspecified
(0.0000°N, 0.0000°E)
Time: 04:12:21
(UTC+00:00)

NOSS 8 (F) - Visible Passes

Search period start: 20 April 2019 00:00
Search period end: 30 April 2019 00:00
Orbit: 407 x 1770 km, 63.3° (Epoch: 08 April)

Date Brightness Start Highest point End Pass type
(mag) Time Alt. Az. Time Alt. Az. Time Alt. Az.
23 Apr 7.9 20:16:34 10° SSW 20:17:27 14° SSW 20:17:27 14° SSW visible
24 Apr 6.4 19:26:56 10° S 19:30:40 32° SSE 19:30:40 32° SSE visible
25 Apr 6.8 18:38:31 10° SSE 18:42:21 18° ESE 18:44:12 15° E visible
25 Apr 7.7 20:28:45 10° WSW 20:31:25 19° W 20:31:25 19° W visible
26 Apr 5.7 19:37:44 10° SSW 19:43:12 58° WNW 19:45:28 25° N visible
27 Apr 5.4 18:47:58 10° S 18:53:32 49° ESE 18:57:33 10° NE visible
28 Apr 7.9 19:50:08 10° WSW 19:53:33 18° WNW 19:56:22 10° NNW visible
29 Apr 9.2 05:28:26 10° NNE 05:33:59 22° ENE 05:40:38 10° ESE visible
29 Apr 6.1 18:58:54 10° SW 19:04:16 52° WNW 19:08:09 10° N visible
